Regional Weather Roundup
Issued by NWS

Home | Current Version | Previous Version | Graphics & Text | Print | Product List | Glossary On
Versions: 1 2 3 4 5 6 7 8 9 10 11 12 13 14 15 16 17 18 19 20 21 22 23 24 25 26 27 28 29 30 31 32 33 34 35 36 37 38 39 40 41 42 43 44 45 46 47 48 49 50
000
ASUS45 KSLC 232210
RWRUT

UTAH REGIONAL WEATHER ROUNDUP
NATIONAL WEATHER SERVICE SALT LAKE CITY UT
400 PM MDT TUE SEP 23 2014

UTZ001>011-023>025-232300-

NORTHERN UTAH

CITY           SKY/WX    TMP DP  RH WIND       PRES   REMARKS
HILL AFB         N/A     80  49  33 VRB2      30.16F
LOGAN          SUNNY     80  49  33 CALM      30.13F
OGDEN            N/A     81  46  29 W7        30.13F
PROVO AIRPORT  MOSUNNY   81  46  30 NE3       30.15F
SALT LAKE CITY   N/A     83  47  28 VRB5      30.10F
VERNAL         MOSUNNY   76  52  43 SE7       30.16F
WENDOVER         N/A     79  52  38 E5        30.11F
HEBER CITY       N/A     79  41  25 SW6       30.19F
WEST JORDAN    SUNNY     81  46  30 SE7       30.14F

$$

UTZ012>022-026-027-232300-

SOUTHERN UTAH

CITY           SKY/WX    TMP DP  RH WIND       PRES   REMARKS
BRYCE CANYON     N/A     72  36  26 CALM      30.34F
CEDAR CITY       N/A     78  37  22 W7        30.19F
MILFORD          N/A     82  39  21 S10       30.14F
MOAB/CYNLANDS  SUNNY     83  40  21 SW5       30.11F
PRICE            N/A     80  42  25 SW9       30.20F
ST GEORGE        N/A     90  41  18 NW5       30.04F
KANAB            N/A     82  37  20 S7        30.18F

$$

REGIONAL REPORTS     COLORADO/ARIZONA

CITY           SKY/WX    TMP DP  RH WIND       PRES   REMARKS
CRAIG, CO      MOSUNNY   74  45  35 W10       30.23F
GRAND JUNCTION SUNNY     81  47  30 NW13      30.13F
RIFLE          MOSUNNY   76  46  34 W8        30.18F
MONTROSE       SUNNY     78  44  29 W6        30.23S
CORTEZ         SUNNY     78  37  22 SW6       30.23F
PAGE, AZ         N/A     87  36  16 VRB3      30.10F
GRAND CANYON     N/A     78  26  14 VRB3G16   30.28F
KINGMAN          N/A     89  29  11 SW3       30.06F
FLAGSTAFF        N/A     75  38  26 SW12      30.30F

$$

REGIONAL REPORTS    NEVADA/IDAHO/WYOMING

CITY           SKY/WX    TMP DP  RH WIND       PRES   REMARKS
LAS VEGAS, NV    N/A     95  34  11 VRB6      29.92F HX  90
ELY              N/A     78  36  21 S7        30.21F
ELKO             N/A     85  35  16 SW8G16    30.09F
POCATELLO, ID  MOSUNNY   82  47  29 W12       30.12F
BURLEY           N/A     83  48  29 NE8       30.05F
EVANSTON, WY   SUNNY     72  40  31 W12G22    30.29S
ROCK SPRINGS   MOSUNNY   72  41  32 W22       30.24F

$$


USA.gov is the U.S. government's official web portal to all federal, state and local government web resources and services.